This is the latest recevied weather packets stored in our database for station/object DN9EM-2. If no packets are shown the sender has not sent any weather packets the latest 10 day(s).
| Time | Temp. | Humidity | Pressure | Rain* | Wind** | Luminosity | Snow |
|---|---|---|---|---|---|---|---|
| 1777576263 | 14.44° C | 54% | 1030.6 hPa | 0 mm | - | - | - |
| 1777575661 | 15° C | 53% | 1030.6 hPa | 0 mm | - | - | - |
| 1777575058 | 15° C | 53% | 1030.6 hPa | 0 mm | - | - | - |
| 1777574455 | 15.56° C | 53% | 1030.6 hPa | 0 mm | - | - | - |
| 1777573852 | 16.11° C | 53% | 1030.5 hPa | 0 mm | - | - | - |
| 1777573250 | 16.67° C | 51% | 1030.5 hPa | 0 mm | - | - | - |
| 1777572647 | 16.67° C | 50% | 1030.5 hPa | 0 mm | - | - | - |
| 1777572044 | 16.67° C | 51% | 1030.6 hPa | 0 mm | - | - | - |
| 1777571442 | 16.67° C | 51% | 1030.6 hPa | 0 mm | - | - | - |
| 1777570839 | 17.22° C | 51% | 1030.6 hPa | 0 mm | - | - | - |
| 1777570236 | 17.22° C | 49% | 1030.6 hPa | 0 mm | - | - | - |
| 1777569634 | 17.78° C | 50% | 1030.6 hPa | 0 mm | - | - | - |
| 1777569031 | 18.33° C | 46% | 1030.6 hPa | 0 mm | - | - | - |
| 1777568428 | 18.33° C | 47% | 1030.7 hPa | 0 mm | - | - | - |
| 1777567825 | 18.33° C | 43% | 1031 hPa | 0 mm | - | - | - |
| 1777567228 | 18.33° C | 45% | 1031 hPa | 0 mm | - | - | - |
| 1777566620 | 18.89° C | 44% | 1031.1 hPa | 0 mm | - | - | - |
| 1777566017 | 18.89° C | 43% | 1031.2 hPa | 0 mm | - | - | - |
| 1777565475 | 18.89° C | 42% | 1031.2 hPa | 0 mm | - | - | - |
| 1777564872 | 18.89° C | 44% | 1031.3 hPa | 0 mm | - | - | - |
| 1777564270 | 18.89° C | 41% | 1031.4 hPa | 0 mm | - | - | - |
| 1777563669 | 19.44° C | 42% | 1031.5 hPa | 0 mm | - | - | - |
| 1777563064 | 19.44° C | 40% | 1031.5 hPa | 0 mm | - | - | - |
| 1777562461 | 20° C | 40% | 1031.5 hPa | 0 mm | - | - | - |
| 1777561859 | 19.44° C | 40% | 1031.7 hPa | 0 mm | - | - | - |
* Rain latest hour (hover to see other rain measurements)
** Current wind speed in m/s (hover to see current wind gust speed)